Location: Kuppenheim
(48.8299°N, 8.2568°E)
Time: 13:39:15
(UTC+00:00)

Cosmos 1606 - Pass Details

Date: 20 June 2021
Orbit: 501 x 527 km, 82.5° (Epoch: 29 July)

Event Time Altitude Azimuth Distance (km) Brightness Sun altitude
Rises 00:55:23 0° 350° (N) 2,657 7.4 -15.2°
Reaches altitude 10° 00:57:32 10° 351° (N) 1,760 6.3 -15.0°
Maximum altitude 01:01:24 88° 77° (ENE) 522 2.6 -14.8°
Enters shadow 01:03:43 23° 171° (S) 1,130 3.9 -14.7°
